• In Uzbekistan
  • List of Countries
  • For 7 days
  • Water Temperature
  • Satellite Maps
  • Weather Map
  • Weather Widgets
  • user-avatar
    Login

    Hourly Weather Banbridge

    Today, 22 October, Sunday

    Time Temperature Precipitation Wind Pressure Humidity
    00:00 +7°C° 0 mm 12 mps 744 mmHg 78%
    01:00 +7°C° 0.1 mm 12 mps 745 mmHg 78%
    02:00 +5°C° 0.1 mm 12 mps 745 mmHg 78%
    03:00 +5°C° 0.1 mm 12 mps 746 mmHg 79%
    04:00 +6°C° 0 mm 11 mps 747 mmHg 78%
    05:00 +6°C° 0 mm 11 mps 747 mmHg 76%
    06:00 +5°C° 0 mm 8 mps 748 mmHg 77%
    07:00 +6°C° 0 mm 8 mps 749 mmHg 77%
    08:00 +6°C° 0 mm 8 mps 749 mmHg 78%
    09:00 +7°C° 0 mm 8 mps 750 mmHg 78%
    10:00 +9°C° 0 mm 8 mps 751 mmHg 76%
    11:00 +10°C° 0 mm 8 mps 751 mmHg 73%
    12:00 +10°C° 0 mm 7 mps 752 mmHg 71%
    13:00 +10°C° 0 mm 6 mps 752 mmHg 74%
    14:00 +10°C° 0 mm 6 mps 752 mmHg 77%
    15:00 +10°C° 0 mm 5 mps 752 mmHg 80%
    16:00 +10°C° 0 mm 4 mps 753 mmHg 84%
    17:00 +8°C° 0 mm 4 mps 753 mmHg 88%
    18:00 +8°C° 0 mm 3 mps 753 mmHg 92%
    19:00 +9°C° 0.1 mm 3 mps 753 mmHg 91%
    20:00 +8°C° 0.1 mm 4 mps 752 mmHg 91%
    21:00 +8°C° 0.1 mm 4 mps 752 mmHg 90%
    22:00 +10°C° 0.4 mm 4 mps 752 mmHg 92%
    23:00 +9°C° 0.4 mm 5 mps 751 mmHg 93%

    Tomorrow, 23 October, Monday

    Time Temperature Precipitation Wind Pressure Humidity
    00:00 +9°C° 0.4 mm 5 mps 751 mmHg 94%
    01:00 +10°C° 0.4 mm 6 mps 750 mmHg 95%
    02:00 +10°C° 0.4 mm 6 mps 750 mmHg 95%
    03:00 +11°C° 0.4 mm 6 mps 749 mmHg 95%
    04:00 +11°C° 0.1 mm 6 mps 749 mmHg 95%
    05:00 +12°C° 0.1 mm 5 mps 749 mmHg 96%
    06:00 +13°C° 0.1 mm 5 mps 749 mmHg 96%
    07:00 +13°C° 0 mm 5 mps 749 mmHg 95%
    08:00 +13°C° 0 mm 5 mps 749 mmHg 94%
    09:00 +13°C° 0 mm 4 mps 750 mmHg 93%
    10:00 +13°C° 0 mm 5 mps 750 mmHg 89%
    11:00 +14°C° 0 mm 5 mps 750 mmHg 86%
    12:00 +14°C° 0 mm 5 mps 751 mmHg 82%
    13:00 +14°C° 0.2 mm 5 mps 751 mmHg 85%
    14:00 +13°C° 0.2 mm 4 mps 751 mmHg 88%
    15:00 +12°C° 0.2 mm 4 mps 751 mmHg 91%
    16:00 +12°C° 0.1 mm 4 mps 751 mmHg 93%
    17:00 +11°C° 0.1 mm 4 mps 751 mmHg 94%
    18:00 +11°C° 0.1 mm 3 mps 751 mmHg 96%
    19:00 +11°C° 0 mm 4 mps 751 mmHg 96%
    20:00 +11°C° 0 mm 4 mps 751 mmHg 96%
    21:00 +11°C° 0 mm 4 mps 751 mmHg 96%
    22:00 +11°C° 0.1 mm 4 mps 750 mmHg 95%
    23:00 +12°C° 0.1 mm 5 mps 750 mmHg 93%

    Day after tomorrow, 24 October, Tuesday

    Time Temperature Precipitation Wind Pressure Humidity
    00:00 +12°C° 0.1 mm 5 mps 749 mmHg 92%
    01:00 +13°C° 0.4 mm 6 mps 749 mmHg 93%
    02:00 +13°C° 0.4 mm 6 mps 748 mmHg 94%
    03:00 +14°C° 0.4 mm 6 mps 748 mmHg 95%
    04:00 +14°C° 0.2 mm 6 mps 748 mmHg 94%
    05:00 +13°C° 0.2 mm 6 mps 748 mmHg 92%
    06:00 +13°C° 0.2 mm 6 mps 748 mmHg 91%
    07:00 +13°C° 0 mm 6 mps 749 mmHg 91%
    08:00 +12°C° 0 mm 5 mps 749 mmHg 92%
    09:00 +12°C° 0 mm 5 mps 749 mmHg 92%
    10:00 +13°C° 0 mm 5 mps 749 mmHg 89%
    11:00 +13°C° 0 mm 5 mps 749 mmHg 86%
    12:00 +14°C° 0 mm 5 mps 750 mmHg 84%
    13:00 +14°C° 0.2 mm 5 mps 749 mmHg 86%
    14:00 +13°C° 0.2 mm 5 mps 749 mmHg 88%
    15:00 +13°C° 0.2 mm 5 mps 749 mmHg 90%
    16:00 +12°C° 0.2 mm 5 mps 749 mmHg 91%
    17:00 +12°C° 0.2 mm 5 mps 749 mmHg 92%
    18:00 +12°C° 0.2 mm 5 mps 749 mmHg 93%
    19:00 +10°C° 0 mm 5 mps 750 mmHg 93%
    20:00 +9°C° 0 mm 5 mps 750 mmHg 93%
    21:00 +9°C° 0 mm 5 mps 750 mmHg 94%
    22:00 +9°C° 0 mm 5 mps 751 mmHg 94%
    23:00 +9°C° 0 mm 6 mps 751 mmHg 94%

    25 October, Wednesday

    Time Temperature Precipitation Wind Pressure Humidity
    00:00 +9°C° 0 mm 6 mps 751 mmHg 94%
    01:00 +9°C° 0 mm 6 mps 751 mmHg 93%
    02:00 +9°C° 0 mm 6 mps 751 mmHg 93%
    03:00 +10°C° 0 mm 6 mps 752 mmHg 92%
    04:00 +9°C° 0 mm 6 mps 752 mmHg 93%
    05:00 +9°C° 0 mm 6 mps 752 mmHg 94%
    06:00 +9°C° 0 mm 5 mps 752 mmHg 94%
    07:00 +9°C° 0 mm 5 mps 753 mmHg 94%
    08:00 +9°C° 0 mm 5 mps 753 mmHg 93%
    09:00 +10°C° 0 mm 5 mps 753 mmHg 92%
    10:00 +10°C° 0 mm 5 mps 754 mmHg 89%
    11:00 +12°C° 0 mm 5 mps 754 mmHg 86%
    12:00 +12°C° 0 mm 5 mps 754 mmHg 83%
    13:00 +12°C° 0 mm 5 mps 754 mmHg 83%
    14:00 +12°C° 0 mm 4 mps 754 mmHg 83%
    15:00 +12°C° 0 mm 4 mps 754 mmHg 83%
    16:00 +12°C° 0 mm 4 mps 754 mmHg 86%
    17:00 +11°C° 0 mm 3 mps 754 mmHg 89%
    18:00 +10°C° 0 mm 3 mps 754 mmHg 92%
    19:00 +10°C° 0.1 mm 3 mps 754 mmHg 92%
    20:00 +10°C° 0.1 mm 3 mps 754 mmHg 93%
    21:00 +10°C° 0.1 mm 4 mps 755 mmHg 94%
    22:00 +9°C° 0 mm 3 mps 755 mmHg 94%
    23:00 +9°C° 0 mm 3 mps 755 mmHg 95%

    26 October, Thursday

    Time Temperature Precipitation Wind Pressure Humidity
    00:00 +8°C° 0 mm 3 mps 755 mmHg 96%
    01:00 +8°C° 0 mm 3 mps 755 mmHg 96%
    02:00 +7°C° 0 mm 3 mps 755 mmHg 96%
    03:00 +7°C° 0 mm 3 mps 755 mmHg 96%
    04:00 +7°C° 0 mm 3 mps 756 mmHg 96%
    05:00 +7°C° 0 mm 3 mps 756 mmHg 96%
    06:00 +8°C° 0 mm 2 mps 756 mmHg 95%
    07:00 +8°C° 0 mm 2 mps 756 mmHg 94%
    08:00 +8°C° 0 mm 2 mps 757 mmHg 93%
    09:00 +9°C° 0 mm 2 mps 757 mmHg 92%
    10:00 +10°C° 0 mm 2 mps 757 mmHg 89%
    11:00 +12°C° 0 mm 2 mps 758 mmHg 86%
    12:00 +12°C° 0 mm 2 mps 758 mmHg 84%
    13:00 +11°C° 0 mm 3 mps 758 mmHg 84%
    14:00 +11°C° 0 mm 3 mps 758 mmHg 85%
    15:00 +12°C° 0 mm 3 mps 758 mmHg 85%
    16:00 +11°C° 0 mm 3 mps 758 mmHg 88%
    17:00 +10°C° 0 mm 3 mps 759 mmHg 91%
    18:00 +9°C° 0 mm 3 mps 759 mmHg 94%
    19:00 +8°C° 0 mm 3 mps 759 mmHg 94%
    20:00 +8°C° 0 mm 3 mps 760 mmHg 95%
    21:00 +7°C° 0 mm 3 mps 760 mmHg 95%
    22:00 +7°C° 0 mm 3 mps 761 mmHg 95%
    23:00 +6°C° 0 mm 4 mps 761 mmHg 95%

    27 October, Friday

    Time Temperature Precipitation Wind Pressure Humidity
    00:00 +6°C° 0 mm 4 mps 762 mmHg 95%
    01:00 +5°C° 0 mm 4 mps 762 mmHg 95%
    02:00 +5°C° 0 mm 4 mps 762 mmHg 95%
    03:00 +5°C° 0 mm 4 mps 762 mmHg 95%
    04:00 +5°C° 0 mm 4 mps 762 mmHg 95%
    05:00 +5°C° 0 mm 4 mps 762 mmHg 95%
    06:00 +5°C° 0 mm 4 mps 763 mmHg 95%
    07:00 +5°C° 0 mm 4 mps 763 mmHg 94%
    08:00 +6°C° 0 mm 4 mps 763 mmHg 93%
    09:00 +7°C° 0 mm 5 mps 763 mmHg 92%
    10:00 +8°C° 0 mm 5 mps 764 mmHg 88%
    11:00 +9°C° 0 mm 6 mps 764 mmHg 84%
    12:00 +10°C° 0 mm 6 mps 764 mmHg 80%
    13:00 +10°C° 0 mm 6 mps 763 mmHg 79%
    14:00 +10°C° 0 mm 6 mps 763 mmHg 78%
    15:00 +10°C° 0 mm 7 mps 762 mmHg 77%
    16:00 +9°C° 0 mm 7 mps 762 mmHg 79%
    17:00 +8°C° 0 mm 6 mps 761 mmHg 81%
    18:00 +7°C° 0 mm 6 mps 761 mmHg 84%
    19:00 +6°C° 0 mm 7 mps 760 mmHg 84%
    20:00 +6°C° 0 mm 7 mps 760 mmHg 84%
    21:00 +6°C° 0 mm 8 mps 759 mmHg 84%
    22:00 +7°C° 0 mm 8 mps 759 mmHg 84%
    23:00 +7°C° 0 mm 8 mps 758 mmHg 83%
    Show more